Regional Weather Roundup
Issued by NWS Glasgow, MT

Home | Current Version | Previous Version | Text Only | Print | Product List | Glossary On
Versions: 1 2 3 4 5 6 7 8 9 10 11 12 13 14 15 16 17 18 19 20 21 22 23 24 25 26 27 28 29 30 31 32 33 34 35 36 37 38 39 40 41 42 43 44 45 46 47 48 49 50
000
ASUS45 KGGW 261515
RWRGGW
HOURLY REGIONAL WEATHER ROUNDUP FOR NORTHEAST MONTANA
NATIONAL WEATHER SERVICE GLASGOW MONTANA
900 AM MDT SUN MAR 26 2017

NOTE: "FAIR" INDICATES FEW OR NO CLOUDS BELOW 12,000 FEET WITH NO
SIGNIFICANT WEATHER AND/OR OBSTRUCTIONS TO VISISBILITY.

NORTHEAST MONTANA


CITY           SKY/WX    TMP DP  RH WIND       PRES   REMARKS
GLASGOW        CLOUDY    35  27  72 NW7       29.93R
PLENTYWOOD       N/A     43  34  70 S3          N/A
WOLF POINT     MOSUNNY   39  32  76 W9        29.92R
JORDAN           N/A     42  34  73 W6        29.94R
WINNETT          N/A     40  30  67 E3G12       N/A
SIDNEY         MOSUNNY   46  35  65 S9        29.91R
GLENDIVE         N/A     46  38  73 SW8       29.93R
MALTA            N/A     38  28  67 SW5         N/A
SCOBEY           N/A     36  25  65 CALM      29.88S

FORT PECK REPORTS


CITY           SKY/WX    TMP DP  RH WIND       PRES   REMARKS
FORT PECK        N/A     42  29  59 W7          N/A
THE PINES        N/A     43  27  53 NW1         N/A

SOUTHEAST MONTANA


CITY           SKY/WX    TMP DP  RH WIND       PRES   REMARKS
BILLINGS       MOSUNNY   43  33  68 NE3       29.97R
MILES CITY     SUNNY     46  38  73 W6        29.94S
BAKER          CLOUDY    43  39  86 W6        29.94S
LIVINGSTON     CLOUDY    35  30  82 NW3       29.97R

CENTRAL MONTANA


CITY           SKY/WX    TMP DP  RH WIND       PRES   REMARKS
HAVRE          CLOUDY    36  28  73 W5        29.94S
LEWISTOWN      CLOUDY    39  25  57 CALM      29.94S
GREAT FALLS    SUNNY     40  22  48 SW9       29.94R
CUT BANK       PTSUNNY   28  20  71 S3        29.92R
HELENA         CLOUDY    40  30  67 NE5       29.97F
BUTTE          SUNNY     28  24  85 CALM      29.97F
BOZEMAN        PTSUNNY   33  29  85 CALM      29.99R

WESTERN MONTANA


CITY           SKY/WX    TMP DP  RH WIND       PRES   REMARKS
MISSOULA       CLOUDY    31  28  89 CALM      30.01S
KALISPELL      NOT AVBL

NORTH DAKOTA


CITY           SKY/WX    TMP DP  RH WIND       PRES   REMARKS
WILLISTON      PTSUNNY   46  34  62 S6        29.90S
DICKINSON      CLOUDY    46  36  68 W9        29.91R
MINOT          CLOUDY    46  36  68 CALM      29.90S
BISMARCK       CLOUDY    41  36  82 S5        29.91F

SOUTHERN SASKATCHEWAN


CITY           SKY/WX    TMP DP  RH WIND       PRES   REMARKS
REGINA         PTSUNNY   39  34  81 SE7       29.87S
ESTEVAN        PTSUNNY   41  36  81 S5        29.90S
SWIFT CURRENT  SUNNY     37  25  60 W16       29.84R




USA.gov is the U.S. government's official web portal to all federal, state and local government web resources and services.